Vorticity
4 5 5 5 5 5 6 5 5 3 4 4 3 3 3 0 1 1 2 -0 5 -0 2 7 6 5 3 1 3 1 5 11 9 6 5 7 17 11 2 -1 5 6 6 3 3
3 3 4 5 5 5 5 5 5 5 3 3 2 -0 3 -0 3 3 2 3 3 6 5 6 4 5 4 -1 -2 6 4 3 15 9 8 7 3 19 6 11 11 1 -0 4 1
2 2 2 3 4 4 3 3 3 3 2 1 2 1 2 1 -0 4 3 6 7 7 4 -0 1 5 4 3 4 1 2 10 32 9 2 8 8 14 5 8 9 8 7 8 3
2 -1 2 1 2 2 4 3 1 2 2 1 1 0 3 1 8 5 2 2 5 8 8 8 14 10 -2 4 2 -1 7 7 19 14 4 8 7 18 5 8 9 5 3 4 1
4 1 -1 1 3 3 3 3 1 2 4 2 2 1 3 5 7 7 0 -4 -0 -5 -6 -4 -0 3 -1 -1 -0 0 -1 14 9 11 8 10 10 6 9 3 3 5 2 2 -3
1 -10 3 -2 -1 2 6 3 5 4 2 3 4 5 7 4 4 4 -3 1 7 6 3 2 7 10 8 4 4 -7 5 15 8 11 11 8 11 2 25 14 8 7 6 4 5
9 6 5 8 10 -1 -8 7 -0 6 6 5 3 0 2 1 -1 -3 -5 1 3 3 -1 10 1 7 16 2 10 24 18 14 13 9 5 -1 13 10 18 14 12 11 11 10 12
5 10 10 12 6 6 3 -11 1 4 5 2 -2 12 9 -1 2 -3 1 12 1 -2 4 6 5 -1 16 15 4 11 15 13 10 3 12 -0 10 9 6 9 9 6 7 7 8
-6 1 6 9 7 8 16 13 -5 7 4 12 13 8 -12 -0 -8 3 3 3 2 0 -0 -3 1 8 21 4 16 8 11 5 4 8 12 7 9 14 7 3 9 6 10 10 6
16 9 14 -9 24 -5 -8 2 6 8 7 5 3 3 7 5 2 1 1 -2 -3 1 1 19 13 23 15 9 10 8 5 8 10 14 10 7 7 8 8 13 10 9 17 13 12
7 12 -0 16 25 31 26 5 -11 3 -8 -9 2 -3 4 2 3 -3 1 -1 -4 -5 14 16 19 15 14 12 10 6 5 6 15 12 4 7 11 8 7 7 5 10 6 7 8
3 31 12 -2 17 17 18 75 49 24 35 21 15 3 27 -7 12 3 -6 -2 6 13 11 14 9 15 16 14 11 7 7 11 8 13 8 9 8 5 4 4 5 8 12 6 7
10 9 6 25 -6 4 0 8 4 -8 24 12 20 14 29 35 22 26 27 28 25 19 18 10 10 6 8 9 10 9 7 9 11 8 7 7 6 8 6 5 6 4 4 10 7
24 -4 -14 -10 18 4 -9 -9 -0 20 27 5 1 16 12 17 3 16 18 12 12 16 21 8 5 10 11 13 12 7 9 7 9 5 9 1 2 8 7 8 7 5 6 3 7
2 11 8 -14 0 -43 -2 7 13 13 8 8 12 10 12 16 27 10 12 15 18 18 8 9 10 8 8 13 10 9 6 5 5 4 3 7 6 5 8 6 5 6 7 8 12
7 5 2 7 16 23 25 12 22 24 -4 9 -1 17 15 16 17 24 19 15 17 12 10 8 15 13 16 16 13 12 9 7 11 11 9 6 7 1 2 4 3 5 4 3 11
11 9 10 8 8 10 6 5 -2 -10 3 -5 3 9 5 12 5 13 21 17 10 24 22 14 8 14 8 7 7 4 6 8 4 4 4 6 10 3 2 4 6 7 8 6 11
6 9 10 9 9 11 9 14 5 5 11 2 13 15 -12 2 -17 -11 4 -19 -23 -16 -10 13 28 13 13 10 14 9 9 5 5 5 7 8 3 3 5 6 7 8 9 9 9
7 10 10 7 8 9 9 5 3 11 3 6 -22 -8 -0 11 -7 -10 0 8 4 -9 -5 -10 0 7 24 20 13 15 5 26 19 13 12 8 11 9 10 8 8 9 5 17 8
14 13 10 9 10 11 12 12 8 9 11 9 9 10 14 -3 -8 12 6 16 12 9 13 -2 -2 10 10 9 11 22 17 10 6 3 2 7 -1 4 11 17 14 9 32 11 11
20 16 12 13 37 6 -2 18 11 12 8 12 9 12 13 20 21 10 8 14 17 12 14 14 15 17 18 4 5 1 3 6 16 13 11 12 14 11 6 7 3 5 5 -2 -2
3 6 16 15 31 -13 0 -7 17 11 10 8 8 13 12 14 9 9 15 14 16 5 9 5 4 8 13 8 2 6 7 6 7 12 18 18 -3 -3 3 -1 0 8 18 27 20
-4 5 23 40 6 14 4 26 2 5 5 11 18 9 23 9 20 5 11 -7 17 5 0 14 -4 10 4 -1 4 4 6 6 5 4 6 9 0 -9 -6 -11 4 17 19 13 0
35 36 39 31 -5 -12 32 13 21 13 16 4 7 7 11 15 -7 15 7 0 35 16 18 9 11 8 -4 7 3 10 10 11 6 4 8 8 8 28 29 18 17 16 23 20 16
-20 -32 -31 -19 -1 26 26 12 12 32 3 17 31 9 3 -12 16 17 19 20 12 7 2 5 4 -2 13 -1 2 11 4 7 10 15 7 10 0 -2 -10 11 5 -19 11 -3 7
32 -3 8 13 32 39 22 -28 13 19 22 3 17 13 14 3 26 14 -8 4 -5 2 -14 4 13 2 7 11 11 10 2 8 6 13 22 24 10 20 16 10 13 19 5 -8 -1
5 14 14 10 25 19 11 10 15 3 17 25 -6 2 16 -2 17 35 9 14 15 11 26 -6 13 19 6 20 13 12 1 16 18 12 21 13 22 21 14 12 12 14 12 11 14
Height
5837 5839 5841 5844 5846 5849 5852 5853 5856 5858 5861 5863 5866 5868 5870 5872 5870 5870 5872 5874 5873 5871 5871 5871 5870 5870 5870 5867 5866 5863 5864 5867 5863 5859 5858 5858 5858 5855 5852 5853 5848 5847 5845 5841 5843
5828 5832 5834 5836 5838 5841 5844 5847 5850 5851 5854 5856 5858 5860 5861 5864 5865 5863 5865 5865 5865 5865 5865 5864 5864 5864 5864 5862 5861 5856 5857 5857 5856 5852 5850 5852 5849 5848 5847 5846 5846 5842 5839 5837 5838
5820 5824 5826 5828 5831 5833 5836 5838 5842 5844 5847 5849 5851 5853 5854 5856 5857 5857 5856 5857 5858 5858 5857 5857 5857 5857 5856 5854 5852 5849 5849 5848 5850 5845 5842 5841 5842 5841 5836 5839 5837 5836 5835 5832 5834
5810 5814 5817 5820 5823 5826 5828 5830 5833 5835 5837 5840 5843 5845 5846 5848 5850 5847 5849 5849 5850 5849 5849 5850 5849 5848 5848 5848 5845 5841 5842 5837 5841 5841 5837 5832 5833 5837 5832 5831 5828 5827 5826 5826 5827
5800 5804 5807 5811 5813 5817 5820 5822 5823 5826 5828 5831 5833 5836 5838 5841 5842 5837 5842 5842 5842 5842 5842 5841 5840 5838 5838 5837 5838 5836 5834 5832 5830 5834 5830 5826 5822 5824 5829 5828 5819 5817 5817 5818 5819
5788 5792 5796 5800 5802 5805 5809 5811 5814 5816 5817 5821 5823 5826 5830 5834 5830 5830 5831 5834 5833 5834 5835 5831 5830 5828 5826 5828 5828 5825 5826 5824 5825 5823 5819 5819 5814 5809 5823 5820 5814 5810 5810 5811 5813
5775 5779 5784 5787 5790 5793 5796 5799 5801 5804 5806 5809 5811 5815 5819 5827 5820 5822 5824 5826 5825 5825 5823 5822 5820 5817 5815 5816 5817 5815 5813 5815 5819 5813 5809 5809 5802 5806 5812 5809 5808 5804 5804 5805 5807
5762 5766 5770 5774 5778 5781 5784 5786 5789 5791 5793 5795 5800 5803 5807 5813 5810 5813 5810 5817 5815 5813 5812 5811 5807 5805 5805 5805 5808 5804 5803 5804 5811 5803 5803 5798 5796 5800 5799 5798 5799 5797 5796 5798 5798
5748 5753 5756 5760 5765 5768 5770 5774 5776 5780 5784 5785 5788 5791 5797 5797 5800 5802 5803 5801 5801 5803 5803 5801 5800 5795 5793 5794 5794 5799 5793 5793 5793 5796 5793 5791 5787 5790 5789 5787 5790 5791 5790 5790 5791
5734 5738 5743 5747 5751 5755 5758 5761 5764 5768 5770 5772 5775 5778 5784 5783 5784 5789 5791 5790 5789 5787 5789 5790 5786 5782 5783 5786 5783 5785 5784 5784 5784 5787 5784 5782 5779 5780 5781 5781 5783 5782 5783 5781 5784
5718 5724 5729 5732 5736 5740 5744 5746 5752 5753 5755 5758 5758 5766 5767 5768 5770 5772 5772 5776 5776 5775 5777 5776 5771 5770 5776 5774 5773 5772 5773 5774 5776 5778 5772 5771 5771 5772 5771 5770 5772 5777 5773 5775 5776
5705 5710 5715 5719 5722 5725 5727 5731 5736 5736 5738 5745 5748 5749 5754 5753 5754 5760 5758 5760 5762 5763 5763 5762 5761 5763 5764 5762 5762 5761 5763 5765 5767 5767 5764 5763 5761 5762 5762 5762 5765 5767 5769 5766 5765
5694 5698 5702 5705 5709 5713 5717 5718 5719 5719 5721 5730 5735 5739 5736 5738 5742 5746 5743 5743 5742 5747 5751 5751 5750 5749 5751 5751 5750 5751 5752 5755 5755 5755 5754 5754 5753 5753 5754 5757 5756 5756 5755 5757 5756
5682 5685 5688 5691 5698 5702 5705 5705 5708 5705 5705 5717 5718 5723 5723 5724 5729 5732 5730 5730 5728 5734 5739 5737 5737 5740 5739 5740 5740 5741 5744 5742 5743 5741 5743 5746 5742 5745 5751 5750 5749 5742 5743 5745 5749
5666 5671 5675 5680 5685 5689 5692 5694 5695 5692 5692 5701 5704 5707 5709 5713 5717 5719 5719 5715 5719 5722 5723 5726 5726 5728 5727 5728 5727 5730 5730 5731 5731 5731 5733 5731 5735 5738 5743 5740 5738 5737 5736 5738 5740
5652 5656 5662 5666 5671 5676 5677 5679 5682 5681 5680 5688 5695 5695 5698 5698 5701 5705 5706 5705 5709 5708 5710 5714 5717 5715 5719 5719 5718 5718 5718 5722 5722 5724 5722 5723 5725 5727 5727 5728 5728 5729 5729 5730 5731
5639 5643 5647 5651 5658 5661 5662 5664 5667 5663 5672 5676 5682 5685 5689 5690 5688 5691 5694 5697 5699 5699 5701 5703 5704 5707 5706 5707 5707 5707 5708 5709 5711 5711 5714 5717 5714 5715 5712 5714 5715 5717 5718 5720 5721
5623 5627 5630 5636 5642 5645 5646 5646 5645 5660 5661 5663 5667 5671 5675 5678 5681 5678 5681 5687 5689 5691 5692 5692 5695 5695 5699 5697 5701 5700 5700 5701 5698 5701 5706 5703 5699 5702 5702 5702 5704 5706 5706 5705 5708
5606 5609 5616 5623 5626 5628 5629 5622 5634 5645 5649 5650 5651 5655 5661 5661 5665 5664 5666 5675 5677 5681 5683 5684 5686 5686 5688 5688 5689 5690 5687 5695 5689 5690 5689 5690 5690 5692 5692 5693 5692 5694 5696 5696 5695
5591 5595 5600 5607 5610 5609 5606 5608 5622 5627 5632 5634 5634 5641 5647 5649 5647 5648 5651 5657 5661 5665 5667 5671 5673 5676 5677 5677 5677 5678 5681 5680 5680 5680 5679 5677 5676 5681 5682 5680 5681 5684 5685 5686 5685
5574 5577 5585 5591 5595 5589 5586 5595 5607 5610 5615 5617 5620 5623 5629 5632 5632 5634 5638 5642 5644 5648 5651 5655 5658 5662 5662 5662 5663 5666 5667 5667 5670 5669 5667 5667 5665 5670 5671 5672 5672 5673 5674 5676 5675
5558 5562 5571 5575 5577 5573 5575 5584 5591 5595 5596 5601 5604 5609 5616 5616 5619 5620 5625 5628 5630 5633 5635 5638 5641 5645 5651 5648 5649 5650 5651 5653 5655 5658 5657 5655 5656 5659 5661 5663 5662 5659 5657 5664 5666
5542 5546 5553 5560 5558 5561 5563 5571 5576 5581 5581 5586 5589 5594 5602 5603 5608 5606 5610 5612 5617 5618 5619 5622 5625 5631 5637 5635 5633 5636 5637 5639 5642 5645 5646 5646 5650 5649 5650 5651 5650 5648 5643 5641 5647
5530 5534 5541 5544 5546 5548 5552 5555 5559 5565 5568 5569 5575 5577 5584 5588 5593 5597 5601 5599 5603 5604 5605 5607 5610 5616 5621 5622 5624 5624 5626 5629 5628 5629 5628 5631 5632 5635 5633 5633 5635 5635 5633 5632 5633
5513 5519 5525 5529 5531 5532 5536 5539 5545 5548 5552 5554 5555 5560 5567 5572 5576 5579 5585 5585 5587 5589 5590 5590 5596 5600 5606 5608 5608 5609 5612 5617 5617 5618 5611 5624 5616 5627 5622 5616 5617 5622 5620 5620 5622
5498 5503 5507 5512 5518 5522 5524 5526 5529 5533 5536 5541 5541 5543 5550 5554 5558 5562 5569 5571 5572 5575 5575 5575 5582 5586 5589 5596 5593 5591 5600 5604 5601 5605 5601 5604 5604 5613 5608 5601 5600 5607 5607 5609 5611
5489 5493 5493 5496 5499 5510 5515 5515 5516 5518 5522 5527 5528 5530 5534 5538 5541 5546 5550 5556 5557 5561 5564 5564 5570 5572 5571 5583 5575 5570 5593 5591 5593 5589 5590 5589 5598 5599 5594 5592 5590 5593 5596 5596 5595